Vertical_Velocity
-1 -2 -3 -1 1 -1 -3 1 1 1 1 2 3 3 2 1 2 2 3 3 3 3 2 2 2 2 2 2 2 3 2 2 1 1 1 1 1 1 1 0 0 -0 1 0
-1 -3 2 -2 -2 1 1 -1 -0 -1 4 -1 1 3 3 2 2 1 2 2 3 3 2 1 0 -1 -1 -1 -1 0 1 2 2 2 1 1 1 0 1 0 0 0 -0 0
7 -5 -1 8 -6 -1 -1 1 1 -4 0 0 0 2 2 1 1 2 3 3 3 3 2 1 1 0 1 0 -1 0 -0 -0 -0 -1 -1 -1 0 0 0 1 0 -0 -0 -1
6 -1 6 1 -2 2 -2 -2 0 3 2 4 3 1 2 7 7 5 3 2 0 -1 -1 -0 -0 0 0 -0 -1 -1 -2 -2 -1 0 1 0 -0 -1 -1 -0 -1 -0 -0 -1
5 1 -1 -0 -1 1 0 -2 1 -0 0 0 0 1 2 -2 -3 -3 -2 -0 1 2 2 2 2 1 1 1 1 1 0 -1 -1 -2 -2 -1 -1 -0 -1 -1 -1 -1 -1 -2
-3 2 3 3 -2 1 1 18 -1 -1 -1 -3 -2 -4 23 10 4 1 -1 -1 -1 -1 -1 -1 -1 1 0 -0 -1 -1 0 0 -0 -1 -1 -1 -1 -1 -1 -0 -0 -1 -1 -0
-1 0 1 -3 0 -0 7 7 -1 -2 -2 -1 -2 -0 -5 -3 1 3 1 1 -1 -2 -1 -1 -2 -1 -1 -1 -1 -2 -2 -2 -2 -0 -0 -2 -1 -1 -1 -2 -1 -1 -0 -1
2 -1 7 -2 1 3 -1 -0 -2 1 -2 -4 0 1 -0 2 -2 -2 -1 3 3 -1 -1 0 -2 -2 -1 -1 -3 -2 -2 -2 -3 -4 -2 -0 1 -1 -0 -1 -1 -1 -2 -1
-2 6 -2 0 -2 3 -1 -0 -0 1 2 -4 -3 0 -1 -4 1 0 -1 -1 2 0 1 1 -1 -0 -2 1 -3 -2 -1 -1 -1 -2 -3 -3 -1 -0 -0 -0 -0 0 -0 -1
1 -3 1 2 5 -0 -4 -2 0 1 -3 -2 -9 -5 -6 -4 -5 -5 -0 -3 -1 -1 -2 2 2 -0 3 -2 -2 -2 -2 -1 -1 -1 -2 -1 -1 -0 -0 -0 1 0 -0 -0
-1 -2 -2 2 2 -0 -5 3 -1 -0 -3 -3 -3 0 -3 -5 -4 -2 -3 -0 -0 0 -1 1 1 -3 2 0 -1 -1 -2 -1 -1 -2 -1 -1 -1 -0 -0 0 -1 -0 1 -0
-12 3 1 -1 -5 -5 -4 -1 -1 -4 -0 2 -5 -4 -3 -1 0 -1 0 3 0 2 1 3 -1 1 -0 -1 0 0 -0 -1 -1 -1 -1 -1 -0 -0 -1 0 -0 -1 -0 -1
-8 1 4 2 -1 -0 -5 -3 0 -2 -0 -5 -2 -5 -2 -6 -1 -2 -0 1 3 0 -0 1 1 2 0 -1 0 1 1 -0 -0 -1 -0 -0 -0 -0 -1 -1 1 0 -0 0
1 -2 5 7 -9 -1 -3 -2 -1 -1 -2 -2 -2 -2 -2 -4 -2 -1 -1 1 0 1 2 2 0 4 -0 -0 0 1 1 1 -0 0 -0 -1 -0 -0 -1 -0 -2 -1 0 -1
2 1 -4 -4 -2 1 -1 -2 0 0 0 1 1 -2 -1 -2 -0 -2 1 -1 -0 -0 4 0 -0 6 -2 -0 2 1 0 1 0 1 1 1 0 -0 -0 -0 1 0 -1 -2
2 -0 1 1 -0 -1 -2 -1 -2 -2 -1 -0 0 1 0 -0 -1 -1 1 1 -0 2 1 1 2 2 -1 1 2 2 2 1 -0 1 1 1 0 0 1 -0 -0 -0 0 -0
-4 2 5 6 -1 -1 -2 -1 -2 -2 -3 -1 -1 -2 -2 -1 1 1 1 0 1 2 1 2 2 -0 0 2 2 2 1 1 2 -0 0 -0 1 0 0 0 -0 -1 -1 -0
-2 -2 -3 -5 -4 -1 1 1 -1 -1 -1 -1 -1 -1 -1 -0 -1 -0 1 0 1 2 1 2 2 1 2 2 1 1 1 1 1 1 1 1 1 0 -0 -0 -0 -1 -1 -1
-1 0 0 -1 -2 -1 -3 -1 -1 -1 -0 -1 -1 -1 -1 0 0 0 1 1 1 1 1 2 2 2 3 2 2 1 1 2 2 1 1 1 0 -0 0 -0 -0 -1 -1 -0
1 0 -2 -1 -2 -1 -1 1 -0 -1 -2 -1 0 0 0 0 1 1 1 1 2 2 2 2 2 2 2 3 2 0 1 1 1 0 1 1 0 0 0 -0 -0 -0 -1 -1
0 -1 -1 -1 -1 -1 -0 -1 -1 -0 0 -1 -1 -0 -1 -1 -0 1 2 2 1 1 1 3 3 3 4 3 2 2 2 2 1 1 2 -0 1 -1 -0 -1 -1 -1 -1 -1
-0 -0 -1 -0 -0 -1 -1 -1 -0 0 -0 1 1 0 0 1 0 0 1 2 2 2 4 5 3 3 3 2 1 2 1 0 0 1 1 1 0 -0 -1 -1 -1 -1 -1 -1
-2 -2 -2 -2 -1 -1 -2 -1 -1 -1 0 1 2 0 -1 -1 -1 -0 2 1 -2 2 4 -2 0 1 2 1 2 1 1 1 0 -0 -0 -0 -1 -1 -1 -1 -1 -1 -1 -1
-2 -2 -2 -1 -1 -1 -1 -1 -1 -1 -1 -0 -1 -0 -1 1 2 -0 -0 -0 -1 -0 1 0 -3 3 1 1 -0 -0 -1 -1 -0 -0 -0 -1 -0 -0 -1 -0 -0 -1 -0 -1
-2 -2 -1 -1 -0 -1 0 -0 -0 1 1 1 0 0 -0 -0 -0 0 1 0 -0 -0 -0 0 0 -1 1 1 0 -0 -1 -1 -2 -2 -1 -1 -1 -1 -1 -1 -1 -1 -0 -0
-1 -0 -0 -0 -1 -1 -0 0 -2 -1 1 1 1 0 -0 0 1 1 1 1 1 0 0 0 0 0 -0 -0 0 -0 0 -0 -1 -1 -1 -1 -1 -0 -0 -0 0 -0 -0 -0
-2 -0 -0 -1 -1 -0 -1 -1 0 1 1 2 -1 -1 1 1 0 -1 -1 0 0 1 1 0 0 0 0 -0 -1 -1 -1 -1 -0 -0 -0 -1 -1 -1 -1 -1 -0 -0 0 -0
Height
2985 2985 2985 2985 2984 2981 2980 2979 2979 2978 2977 2976 2976 2976 2975 2975 2975 2976 2976 2977 2977 2978 2978 2979 2980 2980 2981 2983 2984 2986 2988 2990 2992 2994 2997 2999 3002 3005 3007 3010 3012 3015 3017 3019
2986 2986 2986 2986 2985 2984 2981 2980 2980 2978 2978 2975 2974 2974 2975 2975 2975 2975 2975 2976 2976 2976 2976 2977 2977 2978 2979 2980 2981 2982 2984 2986 2988 2990 2992 2994 2996 2999 3002 3004 3006 3009 3011 3014
2985 2986 2986 2985 2986 2986 2984 2982 2981 2979 2978 2975 2974 2974 2974 2975 2975 2975 2974 2975 2975 2975 2974 2974 2975 2976 2977 2978 2979 2981 2982 2984 2985 2986 2988 2990 2992 2994 2996 2998 3001 3003 3005 3008
2985 2986 2983 2987 2987 2987 2985 2983 2982 2980 2977 2976 2975 2974 2974 2974 2974 2973 2973 2973 2972 2972 2973 2973 2974 2974 2975 2975 2976 2977 2978 2980 2982 2983 2984 2986 2987 2989 2990 2992 2994 2996 2998 3001
2986 2985 2988 2988 2988 2987 2985 2985 2981 2979 2977 2976 2975 2975 2975 2974 2972 2972 2971 2971 2971 2971 2972 2971 2971 2971 2971 2971 2972 2973 2973 2974 2975 2977 2978 2979 2981 2982 2984 2985 2987 2989 2992 2994
2987 2985 2983 2987 2986 2985 2984 2983 2979 2977 2976 2974 2973 2973 2973 2972 2971 2970 2969 2968 2967 2967 2967 2967 2967 2967 2966 2966 2966 2966 2967 2967 2968 2969 2970 2971 2973 2974 2976 2977 2979 2981 2983 2985
2988 2986 2987 2985 2984 2983 2984 2983 2976 2974 2973 2972 2971 2970 2967 2965 2965 2964 2963 2962 2961 2960 2960 2960 2960 2960 2960 2960 2960 2960 2960 2960 2960 2961 2962 2963 2964 2965 2967 2968 2970 2972 2974 2976
2989 2987 2986 2983 2983 2983 2978 2973 2971 2969 2967 2965 2963 2961 2959 2958 2956 2955 2954 2953 2952 2950 2951 2951 2950 2951 2951 2952 2952 2952 2952 2952 2952 2952 2953 2954 2955 2956 2957 2959 2961 2963 2964 2966
2993 2990 2984 2981 2979 2977 2973 2970 2966 2962 2959 2954 2952 2950 2948 2946 2944 2943 2942 2941 2940 2938 2938 2939 2940 2941 2941 2942 2942 2943 2943 2943 2943 2944 2944 2944 2945 2947 2948 2950 2952 2954 2955 2957
2988 2984 2982 2979 2975 2971 2967 2963 2958 2953 2947 2943 2937 2936 2934 2931 2929 2928 2928 2927 2926 2924 2923 2925 2926 2927 2929 2930 2931 2932 2933 2933 2933 2934 2935 2935 2936 2937 2939 2941 2943 2945 2946 2948
2984 2980 2977 2974 2969 2963 2958 2953 2946 2940 2934 2928 2921 2916 2912 2910 2910 2909 2908 2909 2909 2909 2909 2911 2912 2912 2915 2917 2918 2920 2921 2922 2923 2924 2925 2926 2927 2928 2930 2932 2934 2936 2938 2940
2978 2975 2968 2964 2957 2950 2942 2936 2929 2922 2917 2913 2906 2900 2896 2893 2891 2890 2890 2891 2891 2893 2895 2897 2898 2899 2902 2904 2906 2908 2909 2911 2912 2914 2915 2916 2918 2919 2921 2923 2925 2927 2929 2931
2970 2964 2958 2950 2944 2937 2929 2923 2915 2907 2901 2894 2891 2886 2882 2877 2876 2875 2875 2875 2876 2878 2880 2882 2885 2888 2890 2891 2893 2896 2898 2900 2901 2903 2905 2907 2909 2911 2913 2915 2917 2919 2920 2922
2961 2953 2949 2943 2934 2928 2919 2911 2904 2897 2890 2884 2879 2876 2871 2867 2864 2863 2862 2862 2863 2864 2867 2869 2872 2875 2877 2879 2882 2885 2888 2889 2891 2893 2895 2898 2900 2902 2905 2907 2909 2910 2912 2914
2956 2948 2940 2934 2927 2920 2912 2903 2895 2888 2882 2877 2872 2867 2863 2859 2856 2853 2852 2851 2852 2853 2856 2858 2860 2864 2865 2868 2872 2875 2877 2879 2882 2884 2886 2889 2891 2894 2896 2899 2901 2903 2904 2905
2948 2941 2933 2926 2920 2913 2904 2896 2888 2881 2876 2870 2865 2861 2857 2853 2849 2846 2845 2844 2844 2845 2846 2848 2851 2853 2855 2859 2862 2864 2867 2870 2872 2875 2878 2881 2883 2886 2888 2890 2893 2895 2896 2898
2940 2935 2929 2922 2914 2906 2899 2891 2882 2875 2869 2865 2861 2856 2852 2849 2845 2842 2840 2839 2838 2838 2839 2840 2842 2844 2847 2850 2853 2856 2858 2861 2864 2867 2870 2873 2876 2878 2880 2882 2884 2886 2887 2889
2934 2928 2922 2915 2908 2901 2894 2886 2879 2872 2866 2861 2857 2853 2850 2846 2842 2839 2837 2835 2834 2833 2833 2834 2836 2837 2840 2842 2845 2848 2851 2854 2857 2860 2863 2866 2869 2871 2873 2875 2877 2878 2879 2881
2931 2924 2918 2911 2904 2897 2890 2883 2876 2869 2863 2858 2855 2851 2848 2844 2841 2838 2835 2833 2831 2830 2830 2830 2831 2832 2834 2836 2838 2841 2844 2847 2850 2853 2856 2859 2861 2864 2866 2867 2869 2870 2872 2873
2927 2921 2915 2908 2900 2894 2887 2880 2874 2867 2861 2857 2853 2849 2846 2843 2840 2837 2835 2833 2831 2829 2828 2828 2828 2829 2830 2832 2834 2836 2839 2842 2845 2847 2850 2852 2854 2856 2858 2860 2862 2863 2865 2866
2924 2918 2912 2905 2898 2891 2884 2878 2871 2866 2860 2855 2851 2848 2845 2842 2840 2837 2835 2833 2831 2829 2828 2828 2827 2827 2828 2829 2830 2832 2834 2837 2839 2841 2843 2845 2848 2849 2851 2853 2855 2856 2858 2859
2922 2916 2909 2902 2895 2889 2882 2876 2870 2864 2859 2855 2850 2847 2844 2841 2839 2836 2835 2833 2831 2830 2829 2828 2827 2826 2826 2826 2827 2829 2830 2832 2833 2835 2837 2839 2841 2843 2844 2846 2848 2850 2851 2852
2919 2913 2907 2900 2894 2887 2880 2874 2868 2863 2858 2853 2849 2845 2842 2839 2836 2835 2834 2832 2830 2829 2829 2826 2825 2825 2825 2825 2825 2826 2827 2828 2829 2830 2832 2834 2835 2837 2838 2840 2842 2843 2844 2846
2918 2912 2905 2899 2893 2887 2880 2874 2868 2862 2856 2851 2847 2843 2840 2837 2835 2832 2831 2829 2828 2827 2826 2825 2823 2823 2823 2823 2823 2823 2823 2824 2825 2826 2827 2828 2830 2831 2832 2834 2835 2836 2838 2839
2916 2910 2905 2899 2893 2886 2880 2873 2867 2861 2856 2851 2846 2842 2839 2835 2833 2830 2828 2826 2825 2823 2823 2821 2820 2820 2820 2819 2819 2819 2819 2820 2820 2821 2822 2823 2824 2825 2826 2828 2829 2830 2831 2833
2915 2910 2904 2898 2892 2885 2879 2873 2867 2861 2855 2850 2846 2841 2838 2834 2831 2829 2826 2824 2822 2821 2819 2818 2817 2816 2816 2815 2815 2815 2815 2815 2815 2815 2816 2817 2818 2819 2820 2822 2823 2825 2826 2827
2915 2909 2904 2898 2892 2886 2880 2874 2867 2861 2855 2850 2845 2840 2837 2833 2830 2827 2825 2823 2821 2819 2817 2816 2815 2814 2813 2812 2811 2811 2810 2810 2810 2810 2811 2812 2813 2814 2815 2817 2818 2820 2821 2822